GW2166 Weather Reports


Display with metric or nautical units.
time (UTC)temp
F
wind
direction
speed
MPH
gust
MPH
rain 1hr
in
rain 24hr
in
rain mn
in
humidity
%
barometer
mb
20260901143702 83 182 5.0 11.0 0.00 0.00 0.00 66 1016.3
20260901143202 82 168 5.0 11.0 0.00 0.00 0.00 68 1016.2
20260901141701 80 158 7.0 11.0 0.00 0.00 0.00 70 1016.3
20260901141202 80 148 4.0 10.0 0.00 0.00 0.00 72 1016.3
20260901140202 78 162 4.0 9.0 0.00 0.00 0.00 74 1016.2
20260901135702 78 230 2.0 7.0 0.00 0.00 0.00 75 1016.4
20260901134702 75 183 3.0 6.0 0.00 0.00 0.00 79 1016.4
20260901134202 75 157 3.0 6.0 0.00 0.00 0.00 81 1016.3
20260901133203 73 155 2.0 3.0 0.00 0.00 0.00 85 1016.4
20260901132702 73 175 1.0 3.0 0.00 0.00 0.00 85 1016.4
20260901132203 73 175 1.0 3.0 0.00 0.00 0.00 86 1016.5
20260901131702 73 165 2.0 3.0 0.00 0.00 0.00 85 1016.5
20260901131202 72 113 0.0 4.0 0.00 0.00 0.00 88 1016.4
20260901130202 70 116 0.0 0.0 0.00 0.00 0.00 92 1016.3
20260901125202 67 116 0.0 0.0 0.00 0.00 0.00 94 1016.2
20260901124701 66 116 0.0 0.0 0.00 0.00 0.00 95 1016.1
20260901124202 65 116 0.0 0.0 0.00 0.00 0.00 95 1016.2
20260901123702 64 116 0.0 0.0 0.00 0.00 0.00 95 1016.1
20260901123202 64 116 0.0 0.0 0.00 0.00 0.00 95 1016.0
20260901122202 63 116 0.0 0.0 0.00 0.00 0.00 95 1016.0
20260901121702 63 116 0.0 0.0 0.00 0.00 0.00 95 1015.8
20260901121202 63 116 0.0 0.0 0.00 0.00 0.00 95 1015.9
20260901120702 63 116 0.0 0.0 0.00 0.00 0.00 95 1015.9
20260901115702 63 116 0.0 1.0 0.00 0.00 0.00 95 1015.9
20260901115201 63 116 0.0 1.0 0.00 0.00 0.00 95 1015.8
20260901114702 63 116 1.0 1.0 0.00 0.00 0.00 95 1015.6
20260901114202 63 116 0.0 1.0 0.00 0.00 0.00 95 1015.6
20260901113702 63 116 0.0 1.0 0.00 0.00 0.00 96 1015.5
20260901113202 63 116 0.0 0.0 0.00 0.00 0.00 95 1015.6
20260901112702 63 116 0.0 1.0 0.00 0.00 0.00 95 1015.5
20260901112202 63 116 0.0 1.0 0.00 0.00 0.00 95 1015.6
20260901111703 63 116 0.0 1.0 0.00 0.00 0.00 95 1015.5
20260901111202 63 116 0.0 0.0 0.00 0.00 0.00 95 1015.4
20260901110702 63 116 0.0 0.0 0.00 0.00 0.00 95 1015.4
20260901110202 63 116 0.0 0.0 0.00 0.00 0.00 95 1015.3
20260901105702 63 116 0.0 0.0 0.00 0.00 0.00 95 1015.3
20260901105201 63 116 0.0 0.0 0.00 0.00 0.00 95 1015.3
20260901104702 63 116 0.0 0.0 0.00 0.00 0.00 95 1015.3
20260901104202 63 116 0.0 0.0 0.00 0.00 0.00 95 1015.3
20260901103702 63 116 0.0 0.0 0.00 0.00 0.00 95 1015.2
20260901103202 63 116 0.0 0.0 0.00 0.00 0.00 95 1015.1
20260901102702 64 116 0.0 0.0 0.00 0.00 0.00 95 1015.2
20260901102202 64 116 0.0 0.0 0.00 0.00 0.00 95 1015.1
20260901101702 64 116 0.0 0.0 0.00 0.00 0.00 95 1015.1
20260901100202 64 116 0.0 0.0 0.00 0.00 0.00 95 1015.0
20260901095702 64 116 0.0 0.0 0.00 0.00 0.00 95 1015.0
20260901095202 64 116 0.0 1.0 0.00 0.00 0.00 95 1015.0
20260901094702 64 116 0.0 1.0 0.00 0.00 0.00 95 1015.0
20260901094202 64 116 1.0 1.0 0.00 0.00 0.00 95 1015.0
20260901093701 64 116 0.0 0.0 0.00 0.00 0.00 95 1015.0
20260901093203 64 116 0.0 0.0 0.00 0.00 0.00 95 1014.9
20260901092702 64 116 0.0 1.0 0.00 0.00 0.00 95 1014.7
20260901092202 64 116 0.0 1.0 0.00 0.00 0.00 95 1014.8
20260901091702 64 116 0.0 0.0 0.00 0.00 0.00 95 1014.7
20260901091202 64 116 0.0 0.0 0.00 0.00 0.00 95 1014.8
20260901090702 64 116 0.0 2.0 0.00 0.00 0.00 95 1014.8
20260901090203 64 116 0.0 2.0 0.00 0.00 0.00 95 1014.7
20260901085702 64 116 0.0 1.0 0.00 0.00 0.00 95 1014.6
20260901085202 64 116 0.0 2.0 0.00 0.00 0.00 95 1014.6
20260901084202 64 55 0.0 0.0 0.00 0.00 0.00 95 1014.3
20260901083702 64 55 0.0 0.0 0.00 0.00 0.00 95 1014.3
20260901083202 65 55 0.0 0.0 0.00 0.00 0.00 95 1014.3
20260901082702 65 55 0.0 0.0 0.00 0.00 0.00 95 1014.2
20260901082202 65 55 0.0 0.0 0.00 0.00 0.00 95 1014.2
20260901081702 65 55 0.0 0.0 0.00 0.00 0.00 95 1014.2
20260901081202 65 55 0.0 0.0 0.00 0.00 0.00 95 1014.3
20260901080702 65 55 0.0 0.0 0.00 0.00 0.00 95 1014.2
20260901075704 65 55 0.0 0.0 0.00 0.00 0.00 95 1014.2
20260901075203 65 55 0.0 0.0 0.00 0.00 0.00 95 1014.2
20260901074702 65 55 0.0 0.0 0.00 0.00 0.00 94 1014.3
20260901074202 65 55 0.0 0.0 0.00 0.00 0.00 94 1014.5
20260901073202 65 55 0.0 0.0 0.00 0.00 0.00 94 1014.3
20260901072701 65 55 0.0 0.0 0.00 0.00 0.00 93 1014.5
20260901072202 65 55 0.0 0.0 0.00 0.00 0.00 94 1014.5
20260901071702 65 55 0.0 0.0 0.00 0.00 0.00 94 1014.5
20260901071202 65 55 0.0 0.0 0.00 0.00 0.00 94 1014.5
20260901070202 66 55 0.0 1.0 0.00 0.00 0.00 93 1014.6
20260901065702 66 100 0.0 0.0 0.00 0.00 0.00 93 1014.5
20260901065202 66 102 0.0 2.0 0.00 0.00 0.00 93 1014.3
20260901064702 66 102 0.0 2.0 0.00 0.00 0.00 93 1014.5
20260901064202 66 102 0.0 2.0 0.00 0.00 0.00 93 1014.5
20260901063202 66 102 0.0 0.0 0.00 0.00 0.00 93 1014.6
20260901062201 67 102 0.0 0.0 0.00 0.00 0.00 93 1014.5
20260901061201 67 102 0.0 0.0 0.00 0.00 0.00 92 1014.6
20260901060701 67 102 0.0 0.0 0.00 0.00 0.00 92 1014.6
20260901060202 67 102 0.0 0.0 0.00 0.00 0.00 91 1014.7
20260901055702 67 102 0.0 0.0 0.00 0.00 0.00 91 1014.6
20260901055202 67 102 0.0 0.0 0.00 0.00 0.00 91 1014.6
20260901054703 67 102 0.0 0.0 0.00 0.00 0.00 91 1014.5
20260901054202 67 102 0.0 1.0 0.00 0.00 0.00 90 1014.6
20260901053702 67 102 0.0 1.0 0.00 0.00 0.00 90 1014.6
20260901053202 67 76 0.0 0.0 0.00 0.00 0.00 90 1014.5
20260901052703 67 76 0.0 0.0 0.00 0.00 0.00 90 1014.5
20260901052202 68 80 0.0 0.0 0.00 0.00 0.00 90 1014.3
20260901051703 68 80 0.0 0.0 0.00 0.00 0.00 89 1014.5
20260901051202 68 80 0.0 0.0 0.00 0.00 0.00 89 1014.3
20260901050702 68 80 0.0 0.0 0.00 0.00 0.00 89 1014.3
20260901045702 69 80 0.0 1.0 0.00 0.00 0.00 88 1014.3
20260901044702 69 80 1.0 3.0 0.00 0.00 0.00 87 1014.3
20260901044202 69 80 0.0 3.0 0.00 0.00 0.00 86 1014.2
20260901043703 69 195 0.0 2.0 0.00 0.00 0.00 87 1014.3
20260901043202 69 203 0.0 1.0 0.00 0.00 0.00 87 1014.3
20260901041702 70 203 0.0 0.0 0.00 0.00 0.00 86 1014.1
20260901040202 70 203 0.0 0.0 0.00 0.00 0.00 86 1014.1
20260901035702 70 203 0.0 0.0 0.00 0.00 0.00 86 1014.0
20260901035202 70 203 0.0 1.0 0.00 0.00 0.00 86 1014.0
20260901034702 70 203 0.0 1.0 0.00 0.00 0.00 85 1014.0
20260901034201 70 203 0.0 1.0 0.00 0.00 0.00 85 1014.1
20260901033702 70 203 0.0 2.0 0.00 0.00 0.00 85 1014.0
20260901033202 71 203 1.0 2.0 0.00 0.00 0.00 85 1014.0
20260901032703 71 159 0.0 2.0 0.00 0.00 0.00 84 1014.0
20260901032201 71 159 0.0 1.0 0.00 0.00 0.00 84 1014.0
20260901031702 72 159 0.0 1.0 0.00 0.00 0.00 83 1013.9
20260901030702 72 159 0.0 2.0 0.00 0.00 0.00 84 1013.7
20260901030202 72 159 1.0 2.0 0.00 0.00 0.00 84 1013.8
20260901025702 72 159 1.0 3.0 0.00 0.00 0.00 83 1013.7
20260901025202 73 159 0.0 3.0 0.00 0.00 0.00 83 1013.6
20260901024203 73 159 1.0 3.0 0.00 0.00 0.00 82 1013.7
20260901023702 73 175 2.0 3.0 0.00 0.00 0.00 82 1013.7
20260901023202 73 175 0.0 2.0 0.00 0.00 0.00 81 1013.6
20260901022702 73 175 1.0 2.0 0.00 0.00 0.00 81 1013.6
20260901022202 73 175 0.0 2.0 0.00 0.00 0.00 82 1013.6
20260901021703 74 175 0.0 2.0 0.00 0.00 0.00 82 1013.5
20260901021201 74 175 1.0 1.0 0.00 0.00 0.00 81 1013.5
20260901020702 74 175 0.0 2.0 0.00 0.00 0.00 80 1013.4
20260901020202 75 175 1.0 2.0 0.00 0.00 0.00 79 1013.3
20260901015702 75 175 0.0 2.0 0.00 0.00 0.00 79 1013.3
20260901015203 75 175 0.0 0.0 0.00 0.00 0.00 79 1013.2
20260901014702 76 175 0.0 2.0 0.00 0.00 0.00 78 1013.1
20260901014202 76 175 0.0 3.0 0.00 0.00 0.00 79 1013.1
20260901013702 76 175 1.0 3.0 0.00 0.00 0.00 78 1013.0
20260901013202 76 188 1.0 3.0 0.00 0.00 0.00 78 1013.0
20260901012701 77 166 1.0 3.0 0.00 0.00 0.00 78 1012.9
20260901012202 77 166 1.0 3.0 0.00 0.00 0.00 78 1012.9
20260901011702 77 166 2.0 3.0 0.00 0.00 0.00 76 1012.9
20260901011203 78 166 2.0 2.0 0.00 0.00 0.00 76 1012.8
20260901010702 78 166 0.0 2.0 0.00 0.00 0.00 74 1012.8
20260901010202 79 166 1.0 2.0 0.00 0.00 0.00 75 1012.7
20260901005702 80 166 0.0 2.0 0.00 0.00 0.00 75 1012.7
20260901005202 80 166 0.0 3.0 0.00 0.00 0.00 72 1012.8
20260901004702 81 166 1.0 3.0 0.00 0.00 0.00 70 1012.7
20260901004203 82 166 1.0 2.0 0.00 0.00 0.00 68 1012.6
20260901003702 83 166 1.0 3.0 0.00 0.00 0.00 69 1012.6
20260901003202 83 166 2.0 3.0 0.00 0.00 0.00 67 1012.6
20260901002202 85 166 1.0 3.0 0.00 0.00 0.00 62 1012.6
20260901001702 87 166 1.0 4.0 0.00 0.00 0.00 58 1012.5
20260901001202 88 179 2.0 4.0 0.00 0.00 0.00 58 1012.5
20260901000704 90 176 2.0 5.0 0.00 0.00 0.00 55 1012.5
20260901000203 91 168 2.0 5.0 0.00 0.00 0.00 51 1012.5
20260831235702 92 171 2.0 5.0 0.00 0.00 0.00 54 1012.6
20260831235202 93 175 3.0 5.0 0.00 0.00 0.00 50 1012.7
20260831234702 93 250 3.0 9.0 0.00 0.00 0.00 48 1012.6
20260831234203 93 152 3.0 9.0 0.00 0.00 0.00 48 1012.6
20260831233703 94 182 3.0 7.0 0.00 0.00 0.00 49 1012.6
20260831233202 95 179 4.0 7.0 0.00 0.00 0.00 45 1012.6
20260831232702 95 180 3.0 7.0 0.00 0.00 0.00 45 1012.6
20260831232202 95 199 4.0 7.0 0.00 0.00 0.00 47 1012.6
20260831231702 95 195 3.0 6.0 0.00 0.00 0.00 48 1012.6
20260831231203 95 189 2.0 6.0 0.00 0.00 0.00 51 1012.6
20260831230702 95 217 4.0 9.0 0.00 0.00 0.00 46 1012.5
20260831230203 96 189 2.0 10.0 0.00 0.00 0.00 46 1012.5
20260831225702 96 216 4.0 10.0 0.00 0.00 0.00 43 1012.5
20260831225202 96 235 3.0 12.0 0.00 0.00 0.00 44 1012.5
20260831224702 97 212 3.0 12.0 0.00 0.00 0.00 43 1012.5
20260831224202 97 193 4.0 13.0 0.00 0.00 0.00 42 1012.5
20260831223202 98 196 5.0 16.0 0.00 0.00 0.00 40 1012.6
20260831222702 98 200 7.0 16.0 0.00 0.00 0.00 39 1012.6
20260831222202 98 166 6.0 13.0 0.00 0.00 0.00 40 1012.6
20260831221702 98 245 4.0 14.0 0.00 0.00 0.00 39 1012.6
20260831220702 99 230 4.0 14.0 0.00 0.00 0.00 41 1012.7
20260831220202 99 137 7.0 14.0 0.00 0.00 0.00 39 1012.7
20260831215702 98 172 8.0 18.0 0.00 0.00 0.00 38 1012.6
20260831215202 98 188 6.0 18.0 0.00 0.00 0.00 39 1012.7
20260831214702 98 186 9.0 16.0 0.00 0.00 0.00 39 1012.7
20260831214203 98 235 7.0 16.0 0.00 0.00 0.00 40 1012.7
20260831212702 98 204 6.0 16.0 0.00 0.00 0.00 42 1012.7
20260831212202 99 206 7.0 14.0 0.00 0.00 0.00 41 1012.7
20260831211202 99 202 5.0 18.0 0.00 0.00 0.00 40 1012.7
20260831210202 99 168 8.0 17.0 0.00 0.00 0.00 39 1012.7
20260831205702 100 228 9.0 17.0 0.00 0.00 0.00 39 1012.7
20260831205202 100 196 9.0 16.0 0.00 0.00 0.00 38 1012.8
20260831204702 100 161 8.0 18.0 0.00 0.00 0.00 39 1012.8
20260831204203 100 171 8.0 18.0 0.00 0.00 0.00 40 1012.9
20260831203702 100 179 8.0 19.0 0.00 0.00 0.00 39 1012.9
20260831203202 101 204 10.0 19.0 0.00 0.00 0.00 39 1013.0
20260831202702 101 185 6.0 17.0 0.00 0.00 0.00 39 1012.9
20260831201702 100 131 8.0 19.0 0.00 0.00 0.00 39 1012.9
20260831201202 100 186 8.0 19.0 0.00 0.00 0.00 40 1013.1
20260831200702 100 158 6.0 17.0 0.00 0.00 0.00 40 1013.0
20260831200202 99 244 8.0 18.0 0.00 0.00 0.00 39 1013.1
20260831195702 99 213 10.0 18.0 0.00 0.00 0.00 40 1013.3
20260831195202 99 295 7.0 18.0 0.00 0.00 0.00 39 1013.2
20260831194703 100 224 7.0 18.0 0.00 0.00 0.00 40 1013.2
20260831193701 100 223 5.0 18.0 0.00 0.00 0.00 39 1013.3
20260831192203 100 197 8.0 18.0 0.00 0.00 0.00 39 1013.4
20260831191702 99 207 8.0 17.0 0.00 0.00 0.00 41 1013.4
20260831191201 99 216 7.0 17.0 0.00 0.00 0.00 39 1013.4
20260831190701 100 192 6.0 17.0 0.00 0.00 0.00 41 1013.4
20260831190202 99 188 9.0 17.0 0.00 0.00 0.00 40 1013.5
20260831185659 99 193 8.0 17.0 0.00 0.00 0.00 41 1013.5
20260831184659 99 240 9.0 18.0 0.00 0.00 0.00 41 1013.5
20260831184156 99 206 6.0 18.0 0.00 0.00 0.00 42 1013.5
20260831183657 99 199 8.0 16.0 0.00 0.00 0.00 42 1013.5
20260831183158 99 244 6.0 17.0 0.00 0.00 0.00 43 1013.5
20260831182654 98 137 7.0 17.0 0.00 0.00 0.00 42 1013.7
20260831180653 98 200 6.0 18.0 0.00 0.00 0.00 45 1013.8
20260831180153 98 197 9.0 15.0 0.00 0.00 0.00 44 1013.9
20260831175650 97 281 6.0 15.0 0.00 0.00 0.00 43 1014.0
20260831175150 97 219 6.0 15.0 0.00 0.00 0.00 44 1014.1
20260831174652 97 231 7.0 15.0 0.00 0.00 0.00 44 1014.2
20260831174149 97 244 8.0 15.0 0.00 0.00 0.00 44 1014.2
20260831173649 96 213 8.0 15.0 0.00 0.00 0.00 45 1014.3
20260831173149 96 202 8.0 15.0 0.00 0.00 0.00 45 1014.5
20260831172647 95 185 7.0 16.0 0.00 0.00 0.00 48 1014.6
20260831172147 95 235 8.0 19.0 0.00 0.00 0.00 48 1014.6
20260831171647 95 224 6.0 19.0 0.00 0.00 0.00 49 1014.6
20260831171144 95 178 8.0 19.0 0.00 0.00 0.00 47 1014.6
20260831170645 95 226 6.0 14.0 0.00 0.00 0.00 50 1014.6
20260831170143 95 250 5.0 14.0 0.00 0.00 0.00 50 1014.7
20260831165643 94 226 7.0 14.0 0.00 0.00 0.00 50 1014.7
20260831165144 94 231 5.0 14.0 0.00 0.00 0.00 50 1014.7
20260831164643 93 199 8.0 14.0 0.00 0.00 0.00 51 1014.8
20260831164141 93 209 7.0 13.0 0.00 0.00 0.00 51 1014.8
20260831163642 93 199 6.0 12.0 0.00 0.00 0.00 50 1014.9
20260831163141 92 212 5.0 12.0 0.00 0.00 0.00 53 1014.9
20260831162639 91 235 4.0 13.0 0.00 0.00 0.00 51 1014.9
20260831162139 91 248 6.0 13.0 0.00 0.00 0.00 52 1014.9
20260831161137 89 259 4.0 11.0 0.00 0.00 0.00 56 1015.1
20260831160137 90 188 4.0 9.0 0.00 0.00 0.00 56 1015.1
20260831155635 89 210 5.0 11.0 0.00 0.00 0.00 54 1015.1
20260831155135 89 204 7.0 13.0 0.00 0.00 0.00 56 1015.2
20260831154635 89 145 5.0 13.0 0.00 0.00 0.00 56 1015.1
20260831154133 88 231 4.0 12.0 0.00 0.00 0.00 58 1015.0
20260831153633 88 251 3.0 12.0 0.00 0.00 0.00 59 1015.1
20260831153131 88 199 5.0 10.0 0.00 0.00 0.00 60 1015.0
20260831152131 87 243 5.0 12.0 0.00 0.00 0.00 60 1015.1
20260831151631 86 188 5.0 13.0 0.00 0.00 0.00 60 1015.0
20260831151132 86 203 6.0 13.0 0.00 0.00 0.00 60 1015.1
20260831150631 86 185 5.0 11.0 0.00 0.00 0.00 61 1015.1
20260831150131 85 199 4.0 11.0 0.00 0.00 0.00 62 1015.0
20260831145632 85 202 5.0 14.0 0.00 0.00 0.00 63 1014.9
20260831145132 84 204 7.0 14.0 0.00 0.00 0.00 64 1015.0
20260831144630 84 197 5.0 12.0 0.00 0.00 0.00 63 1014.9
20260831144131 83 210 5.0 12.0 0.00 0.00 0.00 63 1015.0